Location: Unspecified
(0.0000°N, 0.0000°E)
Time: 20:14:51
(UTC+00:00)

Tiros 1 despin weight - Visible Passes

Search period start: 29 April 2025 00:00
Search period end: 09 May 2025 00:00
Orbit: 563 x 602 km, 48.2° (Epoch: 28 April)

Date Brightness Start Highest point End Pass type
(mag) Time Alt. Az. Time Alt. Az. Time Alt. Az.
29 Apr ? 18:40:28 10° N 18:44:08 28° NE 18:46:30 17° E visible
29 Apr ? 20:21:50 10° W 20:22:53 14° W 20:22:53 14° W visible
30 Apr ? 18:45:01 10° NNW 18:49:12 63° NE 18:52:10 18° SE visible
01 May ? 18:50:04 10° NW 18:54:14 57° SW 18:57:50 13° SSE visible
02 May ? 05:13:42 10° SSE 05:16:06 14° SE 05:18:31 10° E visible
02 May ? 18:55:41 10° WNW 18:59:17 26° SW 19:02:51 10° S visible
03 May ? 05:17:21 10° S 05:21:10 28° SE 05:25:00 10° ENE visible
03 May ? 19:02:21 10° WSW 19:04:20 13° SW 19:06:19 10° SSW visible
04 May ? 05:21:50 10° SSW 05:26:11 60° SE 05:30:33 10° NE visible
05 May ? 05:26:49 10° SW 05:31:11 62° NW 05:35:33 10° NNE visible
06 May ? 03:55:13 19° SE 03:55:35 19° SE 03:58:44 10° E visible
06 May ? 05:32:20 10° WSW 05:36:10 29° NW 05:40:02 10° N visible
07 May ? 04:00:46 38° ESE 04:00:46 38° ESE 04:04:42 10° ENE visible
08 May ? 04:06:15 62° NE 04:06:15 62° NE 04:09:57 10° NE visible
